Location: St. Louis
(38.6270°N, 90.1994°W)
Time: 00:36:24
(UTC-06:00)

AO-109 - Visible Passes

Search period start: 27 January 2022 00:00
Search period end: 06 February 2022 00:00
Orbit: 479 x 515 km, 60.7° (Epoch: 26 January)

Date Brightness Start Highest point End Pass type
(mag) Time Alt. Az. Time Alt. Az. Time Alt. Az.
27 Jan ? 05:46:06 23° NNW 05:46:06 23° NNW 05:48:42 10° NNE visible
28 Jan ? 05:25:25 18° N 05:25:25 18° N 05:26:47 10° NNE visible
29 Jan ? 05:04:32 12° NNE 05:04:32 12° NNE 05:04:51 10° NNE visible
